When you browse on this site, cookies collect data to enhance your experience and personalize the content and advertising you see.
Visit our Privacy Policy to learn more. By continuing to use the site, you agree to this use of cookies and data.
  • In Österreich
  • Länderverzeichnis
  • Für 7 Tage
  • Wassertemperatur
  • Wetterkarte
  • News
  • Widgets
  • user-avatar
    Anmelden

    Stündliche Wetter Quebec

    Heute, 6 Juni, Samstag

    Zeit Temperatur Niederschläge Wind Luftdruck Luftfeuchtigkeit
    00:00 0°C° 0 mm 1 m/S 693 mmHg 95%
    01:00 0°C° 0 mm 1 m/S 693 mmHg 95%
    02:00 0°C° 0 mm 1 m/S 693 mmHg 95%
    03:00 0°C° 0 mm 1 m/S 693 mmHg 96%
    04:00 -1°C° 0 mm 0 m/S 694 mmHg 96%
    05:00 +2°C° 0 mm 1 m/S 694 mmHg 90%
    06:00 +3°C° 0 mm 1 m/S 694 mmHg 85%
    07:00 +4°C° 0 mm 2 m/S 695 mmHg 79%
    08:00 +5°C° 0 mm 2 m/S 695 mmHg 76%
    09:00 +6°C° 0 mm 2 m/S 695 mmHg 73%
    10:00 +7°C° 0 mm 3 m/S 695 mmHg 70%
    11:00 +7°C° 0.1 mm 3 m/S 695 mmHg 69%
    12:00 +7°C° 0.1 mm 3 m/S 695 mmHg 69%
    13:00 +7°C° 0.1 mm 4 m/S 695 mmHg 68%
    14:00 +7°C° 0 mm 4 m/S 695 mmHg 66%
    15:00 +7°C° 0 mm 4 m/S 696 mmHg 65%
    16:00 +7°C° 0 mm 4 m/S 696 mmHg 64%
    17:00 +6°C° 0 mm 4 m/S 696 mmHg 68%
    18:00 +5°C° 0 mm 4 m/S 696 mmHg 71%
    19:00 +4°C° 0 mm 3 m/S 696 mmHg 75%
    20:00 +3°C° 0 mm 3 m/S 697 mmHg 78%
    21:00 +2°C° 0 mm 3 m/S 697 mmHg 81%
    22:00 +2°C° 0 mm 3 m/S 697 mmHg 84%
    23:00 +2°C° 0 mm 2 m/S 697 mmHg 85%

    Morgen, 7 Juni, Sonntag

    Zeit Temperatur Niederschläge Wind Luftdruck Luftfeuchtigkeit
    00:00 +1°C° 0 mm 2 m/S 697 mmHg 85%
    01:00 +2°C° 0 mm 1 m/S 697 mmHg 85%
    02:00 +2°C° 0 mm 1 m/S 697 mmHg 86%
    03:00 +1°C° 0 mm 2 m/S 697 mmHg 86%
    04:00 -1°C° 0 mm 2 m/S 697 mmHg 87%
    05:00 +2°C° 0 mm 2 m/S 698 mmHg 81%
    06:00 +2°C° 0 mm 3 m/S 698 mmHg 75%
    07:00 +4°C° 0 mm 3 m/S 699 mmHg 70%
    08:00 +4°C° 0 mm 3 m/S 699 mmHg 69%
    09:00 +4°C° 0 mm 3 m/S 699 mmHg 68%
    10:00 +4°C° 0 mm 3 m/S 699 mmHg 68%
    11:00 +5°C° 0 mm 3 m/S 699 mmHg 66%
    12:00 +5°C° 0 mm 3 m/S 699 mmHg 63%
    13:00 +7°C° 0 mm 3 m/S 699 mmHg 61%
    14:00 +7°C° 0 mm 3 m/S 698 mmHg 62%
    15:00 +7°C° 0 mm 3 m/S 698 mmHg 63%
    16:00 +6°C° 0 mm 4 m/S 698 mmHg 63%
    17:00 +5°C° 0 mm 4 m/S 698 mmHg 66%
    18:00 +5°C° 0 mm 4 m/S 698 mmHg 69%
    19:00 +4°C° 0 mm 3 m/S 698 mmHg 72%
    20:00 +3°C° 0 mm 3 m/S 698 mmHg 77%
    21:00 +2°C° 0 mm 2 m/S 698 mmHg 83%
    22:00 +1°C° 0 mm 2 m/S 697 mmHg 88%
    23:00 +1°C° 0 mm 2 m/S 697 mmHg 89%

    übermorgen, 8 Juni, Montag

    Zeit Temperatur Niederschläge Wind Luftdruck Luftfeuchtigkeit
    00:00 -1°C° 0 mm 2 m/S 697 mmHg 90%
    01:00 -1°C° 0 mm 2 m/S 698 mmHg 91%
    02:00 -1°C° 0 mm 2 m/S 698 mmHg 92%
    03:00 -2°C° 0 mm 2 m/S 698 mmHg 92%
    04:00 -3°C° 0 mm 2 m/S 698 mmHg 93%
    05:00 -1°C° 0 mm 2 m/S 698 mmHg 83%
    06:00 +1°C° 0 mm 3 m/S 699 mmHg 73%
    07:00 +3°C° 0 mm 3 m/S 699 mmHg 64%
    08:00 +4°C° 0 mm 4 m/S 699 mmHg 57%
    09:00 +6°C° 0 mm 4 m/S 699 mmHg 50%
    10:00 +7°C° 0 mm 4 m/S 699 mmHg 44%
    11:00 +8°C° 0 mm 4 m/S 699 mmHg 41%
    12:00 +10°C° 0 mm 4 m/S 698 mmHg 38%
    13:00 +11°C° 0 mm 4 m/S 698 mmHg 35%
    14:00 +11°C° 0 mm 4 m/S 698 mmHg 34%
    15:00 +11°C° 0 mm 4 m/S 698 mmHg 33%
    16:00 +11°C° 0 mm 4 m/S 698 mmHg 32%
    17:00 +10°C° 0 mm 3 m/S 698 mmHg 36%
    18:00 +9°C° 0 mm 3 m/S 698 mmHg 40%
    19:00 +8°C° 0 mm 2 m/S 698 mmHg 44%
    20:00 +7°C° 0 mm 2 m/S 698 mmHg 47%
    21:00 +5°C° 0 mm 2 m/S 697 mmHg 51%
    22:00 +5°C° 0 mm 1 m/S 697 mmHg 54%
    23:00 +4°C° 0 mm 1 m/S 697 mmHg 56%

    9 Juni, Dienstag

    Zeit Temperatur Niederschläge Wind Luftdruck Luftfeuchtigkeit
    00:00 +4°C° 0 mm 1 m/S 697 mmHg 57%
    01:00 +4°C° 0 mm 1 m/S 697 mmHg 58%
    02:00 +3°C° 0 mm 2 m/S 697 mmHg 58%
    03:00 +3°C° 0 mm 2 m/S 697 mmHg 58%
    04:00 +3°C° 0 mm 2 m/S 697 mmHg 58%
    05:00 +4°C° 0 mm 2 m/S 697 mmHg 54%
    06:00 +6°C° 0 mm 2 m/S 697 mmHg 50%
    07:00 +7°C° 0 mm 3 m/S 697 mmHg 46%
    08:00 +9°C° 0 mm 3 m/S 697 mmHg 44%
    09:00 +11°C° 0 mm 3 m/S 696 mmHg 42%
    10:00 +12°C° 0 mm 3 m/S 696 mmHg 40%
    11:00 +12°C° 0 mm 4 m/S 696 mmHg 45%
    12:00 +11°C° 0 mm 4 m/S 695 mmHg 49%
    13:00 +10°C° 0 mm 5 m/S 695 mmHg 54%
    14:00 +10°C° 0 mm 5 m/S 695 mmHg 55%
    15:00 +9°C° 0 mm 5 m/S 694 mmHg 56%
    16:00 +9°C° 0 mm 5 m/S 694 mmHg 57%
    17:00 +8°C° 0.5 mm 5 m/S 694 mmHg 66%
    18:00 +7°C° 0.5 mm 5 m/S 693 mmHg 75%
    19:00 +6°C° 0.5 mm 5 m/S 693 mmHg 84%
    20:00 +5°C° 0.2 mm 4 m/S 693 mmHg 87%
    21:00 +5°C° 0.2 mm 4 m/S 693 mmHg 90%
    22:00 +5°C° 0.2 mm 3 m/S 693 mmHg 93%
    23:00 +5°C° 0.3 mm 3 m/S 693 mmHg 94%

    10 Juni, Mittwoch

    Zeit Temperatur Niederschläge Wind Luftdruck Luftfeuchtigkeit
    00:00 +6°C° 0.3 mm 2 m/S 692 mmHg 96%
    01:00 +6°C° 0.3 mm 2 m/S 692 mmHg 97%
    02:00 +7°C° 0 mm 2 m/S 692 mmHg 97%
    03:00 +7°C° 0 mm 2 m/S 692 mmHg 97%
    04:00 +8°C° 0 mm 2 m/S 692 mmHg 98%
    05:00 +9°C° 0 mm 2 m/S 692 mmHg 96%
    06:00 +10°C° 0 mm 2 m/S 692 mmHg 95%
    07:00 +11°C° 0 mm 3 m/S 692 mmHg 93%
    08:00 +12°C° 1 mm 3 m/S 691 mmHg 93%
    09:00 +13°C° 1 mm 4 m/S 691 mmHg 93%
    10:00 +13°C° 1 mm 4 m/S 690 mmHg 93%
    11:00 +14°C° 1.9 mm 5 m/S 690 mmHg 94%
    12:00 +14°C° 1.9 mm 6 m/S 689 mmHg 94%
    13:00 +14°C° 1.9 mm 7 m/S 688 mmHg 95%
    14:00 +15°C° 5.4 mm 7 m/S 688 mmHg 95%
    15:00 +15°C° 5.4 mm 6 m/S 687 mmHg 96%
    16:00 +15°C° 5.4 mm 6 m/S 686 mmHg 97%
    17:00 +16°C° 0.7 mm 7 m/S 686 mmHg 95%
    18:00 +17°C° 0.7 mm 7 m/S 686 mmHg 93%
    19:00 +18°C° 0.7 mm 7 m/S 686 mmHg 92%
    20:00 +17°C° 0.1 mm 6 m/S 686 mmHg 93%
    21:00 +17°C° 0.1 mm 5 m/S 686 mmHg 94%
    22:00 +18°C° 0.1 mm 4 m/S 687 mmHg 95%
    23:00 +18°C° 0.7 mm 4 m/S 686 mmHg 95%

    11 Juni, Donnerstag

    Zeit Temperatur Niederschläge Wind Luftdruck Luftfeuchtigkeit
    00:00 +18°C° 0.7 mm 4 m/S 686 mmHg 95%
    01:00 +19°C° 0.7 mm 4 m/S 686 mmHg 95%
    02:00 +19°C° 2.4 mm 4 m/S 686 mmHg 96%
    03:00 +18°C° 2.4 mm 4 m/S 686 mmHg 96%
    04:00 +18°C° 2.4 mm 4 m/S 685 mmHg 97%
    05:00 +17°C° 1.4 mm 6 m/S 685 mmHg 89%
    06:00 +16°C° 1.4 mm 8 m/S 685 mmHg 82%
    07:00 +16°C° 1.4 mm 11 m/S 686 mmHg 75%
    08:00 +14°C° 0.1 mm 10 m/S 686 mmHg 78%
    09:00 +13°C° 0.1 mm 9 m/S 686 mmHg 80%
    10:00 +12°C° 0.1 mm 9 m/S 687 mmHg 83%
    11:00 +12°C° 0 mm 9 m/S 687 mmHg 78%
    12:00 +13°C° 0 mm 9 m/S 688 mmHg 74%
    13:00 +13°C° 0 mm 9 m/S 689 mmHg 69%
    14:00 +13°C° 0 mm 9 m/S 689 mmHg 67%
    15:00 +15°C° 0 mm 8 m/S 689 mmHg 66%
    16:00 +15°C° 0 mm 7 m/S 689 mmHg 64%
    17:00 +14°C° 0.1 mm 7 m/S 690 mmHg 68%
    18:00 +12°C° 0.1 mm 7 m/S 690 mmHg 73%
    19:00 +11°C° 0.1 mm 6 m/S 690 mmHg 78%
    20:00 +11°C° 0.1 mm 6 m/S 690 mmHg 80%
    21:00 +10°C° 0.1 mm 5 m/S 691 mmHg 83%
    22:00 +11°C° 0.1 mm 4 m/S 691 mmHg 85%
    23:00 +10°C° 0 mm 4 m/S 692 mmHg 88%
    Mehr zeigen